[[{"header":{"parameterUnit":"m.s-1","parameterCategory":2,"la1":30.2991,"la2":30.254,"lo1":-89.0895,"lo2":-89.0444,"dy":0.0017,"dx":0.0017,"nx":28,"ny":28,"refTime":"2025-08-20T03:00:00:Z","depth":"0","parameterNumber":2,"parameterNumberName":"U-component_of_CURRENTS"},"data":[0,0,0,0,0,0,0,0,0,0,0,0,0,0,0,0,0,0,0,0,0,0,0,0,0,0,0,0,0,0,0,0,0,0,0,0,0,0,0,0,0,0,0,0,0,0,0,0,0,0,0,0,0,0,0,0,0,0,0.386,0.3862,0,0.3935,0.3936,0.3936,0.3939,0.3939,0.3939,0.3938,0.3913,0.3913,0.3913,0,0,0,0,0,0,0,0,0,0,0,0,0,0.3733,0.3735,0.386,0.3862,0.3863,0.3935,0.3936,0.3936,0.3939,0.3939,0.3938,0.3938,0.3913,0.3913,0.3912,0,0,0,0,0,0,0,0,0,0,0,0,0,0.3791,0.3736,0.386,0.3877,0.388,0.3935,0.3936,0.3936,0.394,0.3939,0.3938,0.3938,0.3913,0.3913,0.3912,0.3921,0,0,0.3911,0.3911,0,0,0,0,0,0,0,0,0.3788,0.3795,0.3873,0.3876,0.3879,0.3932,0.3882,0.3928,0.394,0.3911,0.3938,0.3938,0.3914,0.3914,0.3923,0.392,0.3919,0.3911,0.3911,0.3911,0.391,0,0,0,0,0,0,0,0.3784,0.3792,0.3884,0.3875,0.3879,0.3887,0.3893,0.3891,0.3909,0.3914,0.3915,0.3933,0.3914,0.3923,0.3922,0.3919,0.3911,0.3911,0.391,0.391,0.3964,0.3966,0,0,0,0,0,0,0.3786,0.3788,0.3882,0.3887,0.3837,0.389,0.3897,0.3911,0.3911,0.3913,0.3933,0.3933,0.3924,0.3923,0.3921,0.3982,0.3911,0.391,0.391,0.3963,0.3965,0.3967,0,0,0,0,0,0,0.3783,0.3793,0.3879,0.3844,0.3856,0.3893,0.3909,0.3913,0.393,0.3928,0.3927,0.3947,0.3924,0.3922,0.3937,0.3979,0.391,0.3909,0.3961,0.3963,0.3966,0.4071,0,0,0,0,0,0,0.3779,0.3792,0.38,0.3844,0.3858,0.3923,0.391,0.3915,0.3944,0.3944,0.3939,0.3936,0.3923,0.3938,0.3937,0.3977,0.3909,0.3959,0.3962,0.3965,0.4065,0.4076,0.4086,0,0,0,0,0,0.3774,0.3792,0.38,0.3812,0.3869,0.3925,0.3932,0.3952,0.3945,0.3962,0.3962,0.3936,0.3958,0.394,0.3937,0.3978,0.3957,0.3961,0.3965,0.406,0.4074,0.4086,0,0,0,0,0,0,0.3736,0.3796,0.3805,0.3838,0.3883,0.3927,0.3947,0.396,0.3974,0.397,0.3956,0.3954,0.399,0.3965,0.3945,0.4003,0.3954,0.3958,0.4027,0.404,0.4051,0.4073,0.3909,0,0,0,0,0,0.3735,0.3766,0.3821,0.3849,0.3871,0.3909,0.3932,0.3951,0.3975,0.3981,0.3982,0.3983,0.4004,0.4005,0.4014,0.4037,0.4075,0.4062,0.4073,0.4082,0.4099,0.4184,0.4205,0.3979,0.3979,0.3979,0,0,0.3726,0.3767,0.3781,0.3844,0.3875,0.392,0.392,0.3965,0.4002,0.3974,0.4011,0.4022,0.402,0.406,0.4072,0.4043,0.4176,0.4087,0.4095,0.4107,0.419,0.4213,0.4233,0.3982,0.3982,0.3981,0,0,0.3733,0.3764,0.3792,0.3835,0.3898,0.3931,0.3948,0.4,0.402,0.4063,0.4064,0.4105,0.411,0.414,0.415,0.4221,0.4235,0.4213,0.428,0.4363,0.4383,0.44,0.4525,0.4553,0.4212,0.4212,0.4212,0,0.3722,0.3767,0.3809,0.3853,0.3891,0.3938,0.3979,0.4018,0.4069,0.4098,0.4083,0.4156,0.4158,0.4232,0.4266,0.425,0.4307,0.4232,0.438,0.4398,0.4414,0.4537,0.4566,0.4217,0.4217,0.4216,0.4216,0,0.3751,0.3792,0.3817,0.3889,0.3933,0.3981,0.4045,0.4091,0.4121,0.4163,0.4241,0.4263,0.4305,0.4323,0.4319,0.4436,0.4447,0.4392,0.4352,0.4444,0.4567,0.4596,0.4225,0.4223,0.4222,0.422,0,0,0.3718,0.3817,0.3825,0.3869,0.3957,0.4003,0.4073,0.4159,0.4232,0.4272,0.4374,0.4415,0.4434,0.4448,0.4458,0.4539,0.4727,0.4522,0.4523,0.4657,0.4958,0.4895,0.492,0.4697,0.4701,0.4704,0.5016,0,0.3731,0.3809,0.3856,0.3939,0.399,0.4059,0.4131,0.4213,0.4291,0.4407,0.4454,0.4548,0.4477,0.4534,0.4594,0.4717,0.48,0.4651,0.484,0.4847,0.4787,0.4949,0.4732,0.4983,0.5044,0.5049,0.5052,0,0.3747,0.3803,0.3872,0.3988,0.4016,0.407,0.421,0.4285,0.4443,0.451,0.4594,0.4651,0.4796,0.4719,0.4929,0.4839,0.4901,0.4975,0.4986,0.4906,0.4835,0.4891,0.5033,0.487,0.5096,0.5093,0.509,0,0.3721,0.3822,0.3877,0.3915,0.4044,0.409,0.4165,0.4309,0.4411,0.46,0.4714,0.4833,0.4956,0.5036,0.5145,0.5068,0.5397,0.5299,0.5298,0.5296,0.5137,0.5112,0.5144,0.5433,0.5433,0.5432,0.5431,0,0.3738,0.379,0.387,0.3911,0.4013,0.4084,0.422,0.4326,0.4502,0.4652,0.4758,0.4912,0.5042,0.5215,0.5258,0.5396,0.5472,0.5369,0.5381,0.517,0.5145,0.501,0.4934,0.5444,0.5441,0.5439,0.5437,0,0.3742,0.3778,0.3869,0.3976,0.4012,0.4094,0.4261,0.4371,0.4524,0.474,0.4815,0.5055,0.5284,0.5402,0.5621,0.5564,0.5539,0.5694,0.5464,0.5439,0.5225,0.5163,0.5094,0.4949,0.5773,0.5773,0.5774,0,0.3772,0.3812,0.3918,0.3982,0.4038,0.4151,0.4241,0.4382,0.4499,0.481,0.492,0.5214,0.5381,0.5693,0.5702,0.5812,0.5593,0.564,0.5417,0.5239,0.518,0.497,0.4835,0.5289,0.5286,0.5283,0.528,0,0.3859,0.3878,0.3948,0.4057,0.4142,0.4244,0.4363,0.4438,0.4617,0.4777,0.501,0.5178,0.5471,0.5513,0.5656,0.5656,0.5353,0.5579,0.5446,0.4866,0.459,0.4444,0.5099,0.5253,0.5256,0.5258,0.526,0.5261,0.3932,0.3992,0.406,0.4162,0.424,0.4301,0.4323,0.4435,0.4564,0.4711,0.495,0.5083,0.5252,0.5424,0.5414,0.5217,0.5198,0.5021,0.4997,0.483,0.4546,0.5167,0.5272,0.5275,0.5277,0.5279,0.5281,0,0.402,0.4065,0.4172,0.4239,0.4266,0.431,0.4378,0.4335,0.4376,0.456,0.4691,0.4789,0.4844,0.4914,0.4841,0.4655,0.4417,0.4511,0.4148,0.407,0.4687,0.4514,0.4393,0.4393,0.4393,0.4393,0.4393,0.4394,0.4073,0.4153,0.4183,0.4227,0.4241,0.4189,0.4166,0.412,0.4163,0.4135,0.4143,0.4241,0.4432,0.4507,0.4315,0.4202,0.386,0.37,0.3705,0.4113,0.4156,0.4196,0.4014,0.379,0.3789,0.2884,0.2878,0.2872]},{"header":{"parameterUnit":"m.s-1","parameterCategory":2,"la1":30.2991,"la2":30.254,"lo1":-89.0895,"lo2":-89.0444,"dy":0.0017,"dx":0.0017,"nx":28,"ny":28,"refTime":"2025-08-20T03:00:00:Z","depth":"0","parameterNumber":3,"parameterNumberName":"V-component_of_CURRENTS"},"data":[0,0,0,0,0,0,0,0,0,0,0,0,0,0,0,0,0,0,0,0,0,0,0,0,0,0,0,0,0,0,0,0,0,0,0,0,0,0,0,0,0,0,0,0,0,0,0,0,0,0,0,0,0,0,0,0,0,0,0.0264,0.0263,0,0.0197,0.0196,0.0195,0.0135,0.0135,0.0134,0.0134,0.0019,0.0017,0.0014,0,0,0,0,0,0,0,0,0,0,0,0,0,0.0278,0.0278,0.0264,0.0263,0.0263,0.0197,0.0196,0.0195,0.0135,0.0135,0.0134,0.0134,0.002,0.0017,0.0014,0,0,0,0,0,0,0,0,0,0,0,0,0,0.0244,0.0278,0.0264,0.0228,0.0225,0.0197,0.0196,0.0194,0.0135,0.0135,0.0134,0.0134,0.0021,0.0017,0.0013,-0.0002,0,0,0.0001,-0.0001,0,0,0,0,0,0,0,0,0.0246,0.0243,0.0234,0.0231,0.0227,0.0177,0.0159,0.0128,0.0135,0.0165,0.0134,0.0133,0.007,0.0062,0.0046,-0.0007,-0.0012,0.0,-0.0002,-0.0004,-0.0005,0,0,0,0,0,0,0,0.0249,0.0246,0.0233,0.0234,0.0229,0.0194,0.0189,0.0152,0.0118,0.0162,0.0159,0.0158,0.0067,0.005,0.0043,-0.0014,0.0,-0.0003,-0.0006,-0.0007,-0.0087,-0.0087,0,0,0,0,0,0,0.0269,0.0248,0.0236,0.0232,0.024,0.0195,0.0189,0.019,0.0119,0.0109,0.0158,0.0155,0.0058,0.0048,0.0039,0.0036,-0.0004,-0.0008,-0.001,-0.0088,-0.0087,-0.0087,0,0,0,0,0,0,0.0269,0.0268,0.0238,0.0241,0.0235,0.0196,0.0198,0.0189,0.0177,0.0117,0.0105,0.0156,0.0057,0.0044,0.0013,0.0031,-0.001,-0.0013,-0.0088,-0.0087,-0.0087,0.0019,0,0,0,0,0,0,0.027,0.0269,0.0273,0.0243,0.0236,0.0238,0.0198,0.0189,0.0179,0.0174,0.0111,0.0099,0.0055,0.002,0.0009,0.0024,-0.0017,-0.0088,-0.0088,-0.0087,0.0015,0.0023,0.003,0,0,0,0,0,0.0271,0.029,0.0274,0.0272,0.0245,0.0239,0.0233,0.02,0.018,0.0184,0.0137,0.0102,0.0016,0.0017,0.0004,0.0019,-0.0089,-0.0088,-0.0087,0.0012,0.0022,0.003,0,0,0,0,0,0,0.03,0.0285,0.0267,0.028,0.0266,0.0231,0.0232,0.021,0.0175,0.0167,0.0106,0.0092,0.0069,0.0028,0.0031,-0.0004,-0.0042,-0.0044,0.0037,0.0046,0.0053,0.009,-0.002,0,0,0,0,0,0.031,0.0317,0.0296,0.0306,0.0303,0.0267,0.0259,0.024,0.0209,0.0193,0.0151,0.0102,0.0061,0.0043,-0.0,-0.0015,-0.0031,-0.0016,-0.0008,-0.0002,0.0019,0.0009,0.0018,-0.0084,-0.0084,-0.0084,0,0,0.0322,0.0316,0.0318,0.0312,0.0294,0.0306,0.026,0.026,0.0266,0.0186,0.0178,0.0126,0.0062,0.0042,0.0029,0.0013,0.0019,-0.0001,0.0006,0.0023,0.0011,0.0021,0.003,-0.0084,-0.0084,-0.0084,0,0,0.0362,0.0348,0.037,0.0366,0.0356,0.0337,0.0344,0.0318,0.0301,0.0287,0.0229,0.0192,0.0135,0.0096,0.0067,0.0089,0.0057,0.0073,0.0145,0.0135,0.0145,0.0152,0.0155,0.0162,0.008,0.008,0.008,0,0.0378,0.0404,0.0375,0.04,0.0407,0.0361,0.0391,0.037,0.0336,0.0335,0.03,0.0227,0.0163,0.0147,0.0147,0.0109,0.0106,0.012,0.0149,0.0156,0.0162,0.0163,0.0169,0.0086,0.0085,0.0084,0.0084,0,0.0436,0.0456,0.0472,0.0486,0.0489,0.0508,0.0484,0.0479,0.0452,0.0434,0.0414,0.0331,0.029,0.026,0.0206,0.0218,0.0204,0.016,0.0135,0.018,0.0176,0.0182,0.0093,0.0091,0.009,0.0088,0,0,0.0476,0.0508,0.0513,0.0542,0.0539,0.0556,0.0564,0.0572,0.0604,0.0545,0.0584,0.0482,0.0442,0.0406,0.0335,0.0321,0.0344,0.027,0.0266,0.029,0.0346,0.0328,0.0332,0.0315,0.0316,0.0317,0.0331,0,0.0531,0.0607,0.0599,0.0665,0.0705,0.0672,0.0698,0.0694,0.0683,0.0708,0.0622,0.0629,0.0496,0.0497,0.045,0.0391,0.0362,0.0346,0.0284,0.0283,0.0276,0.0338,0.0301,0.0311,0.0336,0.0336,0.0337,0,0.0594,0.064,0.0719,0.0778,0.0792,0.082,0.0867,0.0888,0.0894,0.0891,0.0862,0.0809,0.0771,0.066,0.0561,0.0565,0.0457,0.0396,0.0394,0.0347,0.0275,0.0265,0.0318,0.0079,0.0344,0.0344,0.0343,0,0.0658,0.0725,0.0797,0.0814,0.0867,0.0895,0.0926,0.0947,0.1009,0.103,0.1096,0.1,0.1018,0.0863,0.0702,0.0646,0.062,0.0517,0.0393,0.039,0.0332,0.0323,0.0161,0.0436,0.0436,0.0436,0.0436,0,0.0732,0.079,0.0836,0.0878,0.0985,0.0983,0.1098,0.1115,0.1185,0.1312,0.1206,0.1303,0.1078,0.1023,0.0805,0.0648,0.0687,0.0434,0.0402,0.0367,0.0361,0.0126,-0.0015,0.0436,0.0436,0.0436,0.0436,0,0.0804,0.0824,0.092,0.0988,0.1022,0.1104,0.1235,0.1323,0.1377,0.1547,0.1578,0.1574,0.1511,0.1271,0.1077,0.0835,0.0512,0.0567,0.0553,0.0518,0.0139,0.0007,-0.0151,-0.0259,0.0428,0.0428,0.0428,0,0.0854,0.0908,0.1015,0.1089,0.1128,0.1247,0.1341,0.1415,0.1536,0.1734,0.1841,0.185,0.1892,0.16,0.1178,0.082,0.055,0.0528,0.0378,0.0143,-0.0028,-0.0116,-0.0202,0.0343,0.0342,0.0342,0.0341,0,0.0956,0.0983,0.106,0.1211,0.1318,0.1467,0.1614,0.1739,0.1869,0.2042,0.2272,0.2341,0.2075,0.1734,0.1231,0.0937,0.0346,0.0501,0.0256,-0.0097,-0.02,-0.0326,0.0315,0.0335,0.0335,0.0336,0.0336,0.0336,0.1027,0.1103,0.1194,0.1341,0.1478,0.1667,0.181,0.1996,0.2235,0.2524,0.2575,0.2736,0.2189,0.1511,0.111,0.0294,0.0306,0.0016,-0.0116,-0.0174,-0.0312,0.0331,0.0309,0.0309,0.031,0.031,0.031,0,0.1106,0.1183,0.1325,0.1496,0.1661,0.172,0.1977,0.2145,0.2448,0.2741,0.2955,0.2753,0.2084,0.1361,0.0276,-0.0234,-0.044,-0.0523,-0.0691,-0.0745,-0.0177,-0.0218,-0.0353,-0.0352,-0.0352,-0.0352,-0.0352,-0.0351,0.1148,0.1271,0.134,0.1608,0.1744,0.198,0.2132,0.2414,0.2661,0.2995,0.3101,0.3144,0.249,0.0666,-0.0545,-0.0813,-0.1176,-0.1247,-0.1392,-0.1065,-0.1026,-0.0989,-0.1061,-0.137,-0.1372,-0.1916,-0.1922,-0.1927]}],[{"header":{"parameterUnit":"m.s-1","parameterCategory":2,"la1":30.2991,"la2":30.254,"lo1":-89.0895,"lo2":-89.0444,"dy":0.0017,"dx":0.0017,"nx":28,"ny":28,"refTime":"2025-08-20T03:00:00:Z","depth":"2","parameterNumber":2,"parameterNumberName":"U-component_of_CURRENTS"},"data":[0,0,0,0,0,0,0,0,0,0,0,0,0,0,0,0,0,0,0,0,0,0,0,0,0,0,0,0,0,0,0,0,0,0,0,0,0,0,0,0,0,0,0,0,0,0,0,0,0,0,0,0,0,0,0,0,0,0,0.3063,0.3064,0,0.3069,0.3069,0.3068,0.3093,0.3094,0.3095,0.3097,0.3141,0.3141,0.3141,0,0,0,0,0,0,0,0,0,0,0,0,0,0.2955,0.2957,0.3063,0.3064,0.3065,0.3069,0.3069,0.3068,0.3093,0.3094,0.3096,0.3097,0.3141,0.3141,0.3141,0,0,0,0,0,0,0,0,0,0,0,0,0,0.298,0.2958,0.3063,0.3082,0.3084,0.3069,0.3069,0.3068,0.3093,0.3094,0.3096,0.3098,0.3141,0.3141,0.3141,0.3108,0,0,0.3141,0.3142,0,0,0,0,0,0,0,0,0.2979,0.2983,0.3079,0.3081,0.3083,0.3088,0.3047,0.3085,0.3092,0.3083,0.3097,0.3099,0.3129,0.313,0.3118,0.311,0.3112,0.3141,0.3142,0.3142,0.3142,0,0,0,0,0,0,0,0.2977,0.2982,0.3059,0.3079,0.3082,0.305,0.3056,0.3053,0.3092,0.3084,0.3087,0.3097,0.313,0.3118,0.312,0.3112,0.3141,0.3142,0.3142,0.3142,0.3199,0.32,0,0,0,0,0,0,0.2993,0.2982,0.3059,0.306,0.3041,0.3051,0.3057,0.3079,0.3092,0.3097,0.3096,0.3098,0.3117,0.312,0.3122,0.3205,0.3142,0.3142,0.3142,0.3198,0.3199,0.3201,0,0,0,0,0,0,0.2991,0.3001,0.3059,0.3025,0.3031,0.3053,0.3076,0.3079,0.3094,0.3101,0.3106,0.3113,0.3118,0.3121,0.3156,0.3203,0.3142,0.3142,0.3196,0.3198,0.32,0.3294,0,0,0,0,0,0,0.2988,0.3,0.3013,0.3027,0.3034,0.3077,0.3075,0.3078,0.3099,0.3103,0.3117,0.3121,0.312,0.3156,0.3156,0.3202,0.3142,0.3194,0.3197,0.3199,0.3289,0.3299,0.3307,0,0,0,0,0,0.2984,0.3003,0.3014,0.3023,0.3054,0.3078,0.3078,0.3094,0.3099,0.3111,0.3128,0.3122,0.3173,0.3156,0.3157,0.3204,0.3193,0.3196,0.3199,0.3285,0.3297,0.3307,0,0,0,0,0,0,0.2972,0.3008,0.302,0.3052,0.3076,0.3086,0.3098,0.3103,0.3121,0.3131,0.3133,0.3139,0.319,0.3175,0.3157,0.3227,0.3184,0.3187,0.3249,0.326,0.3269,0.3265,0.3142,0,0,0,0,0,0.2973,0.2995,0.3027,0.3055,0.3071,0.3084,0.3093,0.3108,0.3127,0.3136,0.3155,0.3171,0.3194,0.3212,0.3224,0.3253,0.3276,0.3284,0.3293,0.3301,0.3298,0.3398,0.3417,0.3211,0.3211,0.3211,0,0,0.2975,0.3,0.3012,0.3052,0.307,0.3093,0.3094,0.3124,0.315,0.3138,0.3187,0.3204,0.3208,0.3255,0.3276,0.3255,0.3372,0.3305,0.3312,0.3304,0.3403,0.3424,0.3442,0.3214,0.3213,0.3213,0,0,0.2986,0.3019,0.3036,0.3058,0.3096,0.3108,0.3125,0.3156,0.3184,0.3222,0.3232,0.3283,0.3302,0.3332,0.3342,0.3403,0.3418,0.3407,0.3454,0.3553,0.3571,0.3587,0.365,0.3671,0.3413,0.3413,0.3414,0,0.2976,0.3019,0.3045,0.3069,0.3093,0.3122,0.3148,0.3173,0.3215,0.3255,0.3256,0.333,0.3342,0.3406,0.3432,0.3428,0.3472,0.3416,0.3568,0.3584,0.36,0.366,0.3682,0.3418,0.3418,0.3417,0.3417,0,0.3001,0.3035,0.3053,0.3094,0.3122,0.3153,0.3199,0.3245,0.3283,0.3317,0.3404,0.3425,0.3479,0.3492,0.3479,0.3588,0.358,0.3573,0.3545,0.3627,0.3684,0.3706,0.3425,0.3424,0.3422,0.3421,0,0,0.2967,0.3048,0.3054,0.3091,0.314,0.3173,0.3233,0.3305,0.3379,0.342,0.3523,0.3554,0.3587,0.3599,0.3608,0.3676,0.3824,0.367,0.3673,0.374,0.4032,0.3921,0.3933,0.3857,0.3861,0.3864,0.4032,0,0.2972,0.3028,0.3066,0.3128,0.3167,0.3222,0.3279,0.3353,0.3435,0.3547,0.3593,0.3687,0.3622,0.3683,0.3737,0.3821,0.3884,0.3778,0.3933,0.3937,0.3837,0.3955,0.3651,0.3765,0.4053,0.4056,0.4059,0,0.2977,0.302,0.3078,0.3175,0.3199,0.3239,0.3372,0.3427,0.3574,0.3652,0.3745,0.3802,0.3909,0.3857,0.4005,0.3947,0.3988,0.4027,0.4035,0.3909,0.3866,0.3728,0.3793,0.4094,0.4092,0.4089,0.4087,0,0.2952,0.3033,0.3085,0.3112,0.3214,0.327,0.333,0.3464,0.3556,0.3743,0.3857,0.3961,0.4062,0.4128,0.4182,0.4133,0.4348,0.43,0.4223,0.4215,0.397,0.3933,0.4405,0.4405,0.4404,0.4404,0.4404,0,0.2943,0.2987,0.3086,0.3115,0.3204,0.3274,0.3391,0.3491,0.3657,0.3775,0.3909,0.4024,0.4143,0.4263,0.4273,0.4318,0.4428,0.4252,0.4266,0.3991,0.3956,0.4237,0.4215,0.441,0.4409,0.4408,0.4407,0,0.2917,0.2967,0.3039,0.3151,0.3195,0.3261,0.3416,0.35,0.3675,0.3849,0.3924,0.414,0.4291,0.4379,0.4523,0.4442,0.4499,0.4476,0.4125,0.4092,0.4273,0.4254,0.4427,0.4425,0.4423,0.4422,0.442,0,0.2911,0.2945,0.3062,0.3097,0.3151,0.3255,0.3318,0.349,0.3586,0.3879,0.3955,0.4198,0.4264,0.4441,0.4432,0.4463,0.4516,0.4156,0.3986,0.4288,0.4284,0.4268,0.4252,0.3709,0.3702,0.3696,0.3691,0,0.2896,0.2936,0.2992,0.3058,0.3124,0.32,0.3309,0.3379,0.357,0.3728,0.39,0.3988,0.4189,0.4087,0.4154,0.4113,0.4127,0.4037,0.4508,0.3732,0.3619,0.3612,0.3619,0.364,0.3645,0.3649,0.3652,0.3654,0.288,0.2895,0.294,0.2975,0.3051,0.3063,0.3075,0.3196,0.3294,0.3443,0.3652,0.3696,0.3785,0.3729,0.3648,0.3633,0.3884,0.369,0.3705,0.3727,0.3596,0.3484,0.3454,0.3458,0.3462,0.3465,0.3467,0,0.2841,0.2798,0.2836,0.2851,0.2872,0.2958,0.2996,0.2957,0.2971,0.3176,0.3274,0.3069,0.3035,0.3157,0.3055,0.3047,0.2986,0.2923,0.2819,0.2875,0.2924,0.2747,0.2383,0.2379,0.2375,0.2372,0,0,0.2796,0.2762,0.2722,0.263,0.2667,0.2592,0.2568,0.255,0.2614,0.2601,0.2654,0.2903,0.3054,0.2671,0.2644,0.2496,0.2651,0.2403,0.3287,0.3222,0.3265,0.3399,0.3195,0,0,0,0,0]},{"header":{"parameterUnit":"m.s-1","parameterCategory":2,"la1":30.2991,"la2":30.254,"lo1":-89.0895,"lo2":-89.0444,"dy":0.0017,"dx":0.0017,"nx":28,"ny":28,"refTime":"2025-08-20T03:00:00:Z","depth":"2","parameterNumber":3,"parameterNumberName":"V-component_of_CURRENTS"},"data":[0,0,0,0,0,0,0,0,0,0,0,0,0,0,0,0,0,0,0,0,0,0,0,0,0,0,0,0,0,0,0,0,0,0,0,0,0,0,0,0,0,0,0,0,0,0,0,0,0,0,0,0,0,0,0,0,0,0,0.0068,0.0067,0,0.0008,0.0007,0.0006,-0.0039,-0.0039,-0.0039,-0.0039,-0.0138,-0.014,-0.0143,0,0,0,0,0,0,0,0,0,0,0,0,0,0.0089,0.0089,0.0068,0.0067,0.0067,0.0008,0.0007,0.0006,-0.0039,-0.0039,-0.0039,-0.004,-0.0137,-0.014,-0.0143,0,0,0,0,0,0,0,0,0,0,0,0,0,0.0058,0.0089,0.0068,0.0038,0.0035,0.0008,0.0007,0.0006,-0.0038,-0.0039,-0.0039,-0.004,-0.0136,-0.014,-0.0143,-0.0156,0,0,-0.0154,-0.0156,0,0,0,0,0,0,0,0,0.006,0.0058,0.0043,0.004,0.0037,-0.0008,-0.0022,-0.005,-0.0038,-0.0012,-0.0039,-0.004,-0.0097,-0.0104,-0.0115,-0.0161,-0.0165,-0.0154,-0.0157,-0.0158,-0.0159,0,0,0,0,0,0,0,0.0062,0.006,0.0043,0.0043,0.0039,0.0008,0.0004,-0.0028,-0.0053,-0.0014,-0.0017,-0.0022,-0.0099,-0.0111,-0.0118,-0.0167,-0.0154,-0.0157,-0.016,-0.0161,-0.0232,-0.0232,0,0,0,0,0,0,0.0075,0.0062,0.0045,0.0041,0.0049,0.0009,0.0004,0.0006,-0.0052,-0.006,-0.0022,-0.0024,-0.0105,-0.0114,-0.0121,-0.0129,-0.0158,-0.0161,-0.0163,-0.0232,-0.0232,-0.0232,0,0,0,0,0,0,0.0076,0.0075,0.0047,0.005,0.0045,0.0009,0.0012,0.0005,-0.0005,-0.0057,-0.0066,-0.0024,-0.0106,-0.0117,-0.0145,-0.0134,-0.0163,-0.0166,-0.0233,-0.0232,-0.0232,-0.0151,0,0,0,0,0,0,0.0077,0.0076,0.008,0.0052,0.0045,0.0043,0.0012,0.0004,-0.0007,-0.001,-0.0062,-0.0072,-0.0107,-0.0139,-0.0148,-0.0139,-0.0169,-0.0233,-0.0232,-0.0232,-0.0154,-0.0148,-0.0143,0,0,0,0,0,0.0078,0.0094,0.0081,0.0079,0.0054,0.0044,0.0039,0.001,-0.0006,-0.0002,-0.0041,-0.007,-0.0143,-0.0142,-0.0152,-0.0144,-0.0233,-0.0233,-0.0232,-0.0157,-0.0149,-0.0143,0,0,0,0,0,0,0.0107,0.0091,0.0075,0.0085,0.0069,0.0037,0.0038,0.0017,-0.0011,-0.0015,-0.0067,-0.0079,-0.0102,-0.0134,-0.0131,-0.0164,-0.0193,-0.0194,-0.0132,-0.0126,-0.012,-0.0091,-0.0172,0,0,0,0,0,0.0116,0.0122,0.0099,0.0106,0.0102,0.007,0.0061,0.0045,0.0017,0.0005,-0.0031,-0.0072,-0.0108,-0.0125,-0.0161,-0.0176,-0.0203,-0.0178,-0.0173,-0.0168,-0.0152,-0.0181,-0.0176,-0.023,-0.023,-0.023,0,0,0.0127,0.012,0.0121,0.0112,0.0096,0.0105,0.0064,0.0062,0.0066,-0.0002,-0.0008,-0.0055,-0.0109,-0.0128,-0.014,-0.0152,-0.0169,-0.0167,-0.0162,-0.015,-0.018,-0.0175,-0.017,-0.023,-0.023,-0.023,0,0,0.0162,0.0149,0.0168,0.0163,0.015,0.0133,0.0137,0.0111,0.0097,0.0082,0.0033,-0.0003,-0.0052,-0.0087,-0.0113,-0.0098,-0.0141,-0.0113,-0.0058,-0.0086,-0.0081,-0.0077,-0.0111,-0.0111,-0.0107,-0.0106,-0.0106,0,0.0174,0.0198,0.0171,0.0192,0.0196,0.0152,0.0179,0.0158,0.0126,0.0123,0.0093,0.002,-0.0031,-0.0055,-0.0054,-0.0084,-0.0107,-0.0077,-0.0076,-0.0073,-0.0071,-0.0106,-0.0107,-0.0103,-0.0103,-0.0103,-0.0104,0,0.0226,0.0243,0.0256,0.0267,0.0268,0.0284,0.0259,0.0253,0.0226,0.0205,0.0177,0.0103,0.0065,0.0035,-0.0007,-0.0014,-0.004,-0.0067,-0.0087,-0.006,-0.01,-0.0102,-0.0097,-0.0098,-0.0099,-0.01,0,0,0.026,0.0288,0.0293,0.032,0.0314,0.0327,0.0332,0.0331,0.035,0.0293,0.0311,0.0222,0.0184,0.0152,0.0089,0.0057,0.004,0.0011,0.0008,-0.0011,-0.0021,-0.0069,-0.0077,0.0018,0.0018,0.0018,-0.0057,0,0.0308,0.0372,0.0368,0.0426,0.0458,0.043,0.0444,0.0435,0.0417,0.0422,0.0337,0.0322,0.0228,0.0214,0.0166,0.0081,0.0039,0.0063,-0.0054,-0.0057,-0.0095,-0.008,-0.0052,-0.0119,-0.006,-0.0061,-0.0061,0,0.036,0.04,0.0469,0.052,0.0532,0.0554,0.0585,0.0596,0.0577,0.0567,0.0529,0.0465,0.0403,0.0324,0.0187,0.021,0.0104,0.0025,0.002,-0.0051,-0.011,-0.0138,-0.0126,-0.0065,-0.0065,-0.0065,-0.0064,0,0.0409,0.0472,0.0536,0.0552,0.0594,0.0618,0.0638,0.0639,0.0682,0.0666,0.0701,0.0594,0.0567,0.0423,0.024,0.0222,0.0094,0.0047,-0.0103,-0.0108,-0.0121,-0.0127,-0.0049,-0.0049,-0.0049,-0.0049,-0.0049,0,0.0465,0.0516,0.0567,0.0602,0.0687,0.0687,0.077,0.0775,0.0814,0.0891,0.0786,0.0814,0.0594,0.0485,0.0298,0.0096,0.0132,-0.0086,-0.0126,-0.0095,-0.0098,-0.0079,-0.0081,-0.0052,-0.0051,-0.0051,-0.005,0,0.0507,0.0535,0.0618,0.0682,0.0713,0.0773,0.0876,0.094,0.0962,0.1064,0.107,0.0994,0.0848,0.0612,0.0379,0.0188,-0.0013,-0.0101,-0.0055,-0.009,-0.0213,-0.0211,-0.0266,-0.0269,-0.0271,-0.0272,-0.0274,0,0.0535,0.0579,0.0685,0.0747,0.0781,0.0875,0.0949,0.1007,0.1099,0.1177,0.1243,0.1134,0.1057,0.069,0.0346,0.001,-0.0027,-0.0193,-0.0235,-0.02,-0.0233,-0.0228,-0.0223,-0.0224,-0.0224,-0.0225,-0.0226,0,0.0585,0.0619,0.0692,0.0823,0.0916,0.1033,0.115,0.1253,0.1337,0.1429,0.1509,0.1448,0.1099,0.0754,0.0281,0.0051,-0.014,-0.0219,-0.0175,-0.0176,-0.0167,-0.0197,-0.0192,-0.0232,-0.0231,-0.0231,-0.023,-0.023,0.0623,0.0682,0.0778,0.0903,0.1019,0.1167,0.1285,0.1429,0.1588,0.1734,0.1675,0.1615,0.1206,0.0606,0.0207,-0.0191,-0.0184,-0.0332,-0.0327,-0.0321,-0.0306,-0.0301,-0.0388,-0.0389,-0.0389,-0.0389,-0.0389,0,0.0666,0.0735,0.0853,0.1007,0.1151,0.1203,0.1405,0.1534,0.1738,0.1848,0.1894,0.152,0.1108,0.0675,0.0077,-0.0314,-0.0332,-0.0425,-0.0355,-0.0347,-0.0341,-0.0324,-0.0413,-0.0414,-0.0415,-0.0415,0,0,0.0688,0.0795,0.0854,0.1083,0.1208,0.1395,0.1519,0.1715,0.1841,0.195,0.1938,0.1806,0.1253,0.0821,0.0293,-0.0042,-0.0101,-0.0115,-0.006,0.0091,0.0103,-0.026,-0.0223,0,0,0,0,0]}],[{"header":{"parameterUnit":"m.s-1","parameterCategory":2,"la1":30.2991,"la2":30.254,"lo1":-89.0895,"lo2":-89.0444,"dy":0.0017,"dx":0.0017,"nx":28,"ny":28,"refTime":"2025-08-20T03:00:00:Z","depth":"4","parameterNumber":2,"parameterNumberName":"U-component_of_CURRENTS"},"data":[0,0,0,0,0,0,0,0,0,0,0,0,0,0,0,0,0,0,0,0,0,0,0,0,0,0,0,0,0,0,0,0,0,0,0,0,0,0,0,0,0,0,0,0,0,0,0,0,0,0,0,0,0,0,0,0,0,0,0.1777,0.1778,0,0.1849,0.185,0.185,0.1916,0.1917,0.1918,0.1919,0.2019,0.2021,0.2023,0,0,0,0,0,0,0,0,0,0,0,0,0,0.17,0.1701,0.1777,0.1778,0.1779,0.1849,0.185,0.185,0.1916,0.1917,0.1918,0.1919,0.2018,0.2021,0.2023,0,0,0,0,0,0,0,0,0,0,0,0,0,0.1748,0.1701,0.1777,0.1821,0.1825,0.1848,0.185,0.1851,0.1916,0.1917,0.1919,0.192,0.2018,0.202,0.2023,0.2014,0,0,0.2032,0.2033,0,0,0,0,0,0,0,0,0.1745,0.1751,0.1813,0.1818,0.1823,0.1875,0.1859,0.1907,0.1916,0.1881,0.1919,0.192,0.1973,0.1979,0.1989,0.2019,0.2023,0.2032,0.2034,0.2035,0.2036,0,0,0,0,0,0,0,0.1742,0.1748,0.1805,0.1814,0.182,0.1837,0.1846,0.1868,0.1919,0.1884,0.1889,0.1898,0.1976,0.1986,0.1992,0.2025,0.2032,0.2034,0.2036,0.2037,0.2175,0.2177,0,0,0,0,0,0,0.1732,0.1745,0.1803,0.1807,0.1787,0.1838,0.1847,0.1857,0.1918,0.1929,0.1896,0.19,0.1981,0.1988,0.1996,0.2095,0.2035,0.2037,0.2039,0.2173,0.2175,0.2177,0,0,0,0,0,0,0.173,0.1737,0.18,0.1778,0.1787,0.1838,0.1848,0.1858,0.1909,0.1927,0.1939,0.1943,0.1982,0.1992,0.2056,0.2095,0.2039,0.2041,0.2171,0.2174,0.2176,0.2225,0,0,0,0,0,0,0.1728,0.1736,0.1758,0.1777,0.1788,0.1842,0.1848,0.1858,0.191,0.1917,0.197,0.1979,0.1984,0.2052,0.2059,0.2098,0.2043,0.2168,0.2172,0.2175,0.2221,0.2229,0.2236,0,0,0,0,0,0.1725,0.1742,0.1759,0.1767,0.1811,0.1843,0.1852,0.189,0.1911,0.194,0.1981,0.1979,0.2081,0.2056,0.2064,0.2104,0.2166,0.2171,0.2175,0.2217,0.2228,0.2236,0,0,0,0,0,0,0.1722,0.1751,0.177,0.1797,0.1833,0.1856,0.1888,0.1912,0.1965,0.1983,0.2002,0.2014,0.2087,0.209,0.2062,0.2156,0.2124,0.213,0.2154,0.2163,0.2171,0.2164,0.2046,0,0,0,0,0,0.173,0.1755,0.1783,0.1812,0.1831,0.1868,0.1893,0.1919,0.1958,0.1985,0.2023,0.2064,0.2103,0.213,0.2163,0.2211,0.2229,0.2243,0.2251,0.2258,0.2259,0.233,0.2344,0.2192,0.2192,0.2192,0,0,0.1736,0.1758,0.1773,0.1815,0.1846,0.1876,0.1888,0.1936,0.1969,0.1985,0.2059,0.2097,0.2124,0.2183,0.2215,0.2195,0.2313,0.2263,0.2269,0.2266,0.2336,0.2351,0.2364,0.2195,0.2195,0.2194,0,0,0.1747,0.1784,0.1805,0.1837,0.1888,0.1909,0.1931,0.1979,0.2016,0.2078,0.2104,0.2167,0.2224,0.2252,0.227,0.234,0.2355,0.236,0.2391,0.2461,0.2474,0.2486,0.2531,0.2547,0.236,0.236,0.236,0,0.1758,0.1786,0.1819,0.1848,0.1878,0.1927,0.1957,0.1995,0.2063,0.2098,0.2113,0.2228,0.2252,0.2321,0.2347,0.2357,0.2396,0.235,0.2471,0.2483,0.2494,0.2538,0.2554,0.2363,0.2363,0.2363,0.2362,0,0.1774,0.1812,0.1831,0.1882,0.192,0.1958,0.2005,0.2061,0.2112,0.215,0.2249,0.2293,0.2362,0.2383,0.2385,0.2479,0.2482,0.2475,0.2443,0.2512,0.2554,0.257,0.2367,0.2366,0.2365,0.2365,0,0,0.1748,0.1826,0.1837,0.1869,0.1942,0.1969,0.2035,0.2101,0.2161,0.2235,0.2314,0.2384,0.2429,0.2453,0.2481,0.2535,0.2642,0.2543,0.2545,0.2581,0.2799,0.2612,0.2611,0.267,0.2673,0.2675,0.2798,0,0.1754,0.1804,0.1848,0.1909,0.1935,0.2006,0.2066,0.2137,0.2209,0.2302,0.2364,0.2459,0.245,0.2511,0.2562,0.2633,0.2687,0.2609,0.2733,0.2736,0.2555,0.2624,0.2685,0.281,0.2813,0.2816,0.2818,0,0.1748,0.1782,0.1836,0.1922,0.1945,0.2,0.2109,0.2175,0.2301,0.2363,0.246,0.2525,0.2629,0.2614,0.2755,0.2715,0.2762,0.2799,0.2805,0.262,0.2577,0.2728,0.2846,0.2844,0.2842,0.284,0.2838,0,0.1693,0.1773,0.1818,0.1847,0.1951,0.2007,0.2082,0.2202,0.2279,0.2429,0.2511,0.2622,0.272,0.2791,0.2864,0.2838,0.3007,0.2977,0.2848,0.2836,0.2946,0.2932,0.3076,0.3076,0.3075,0.3075,0.3075,0,0.1664,0.17,0.1805,0.1831,0.1903,0.1994,0.2104,0.2192,0.2342,0.2431,0.2558,0.264,0.2778,0.288,0.2913,0.2923,0.3052,0.2861,0.2858,0.2964,0.2951,0.2957,0.2942,0.308,0.3079,0.3078,0.3077,0,0.1588,0.1662,0.1714,0.1833,0.1882,0.1938,0.2115,0.2173,0.2349,0.2474,0.2537,0.2709,0.2825,0.2928,0.3059,0.2979,0.3012,0.2986,0.31,0.3101,0.2782,0.2768,0.2843,0.2837,0.2833,0.2829,0.2825,0,0.1548,0.157,0.1699,0.1725,0.1785,0.1896,0.1957,0.2151,0.2223,0.248,0.2515,0.2709,0.2794,0.2832,0.2941,0.2992,0.296,0.2952,0.2841,0.2769,0.2761,0.2754,0.2747,0.2818,0.2817,0.2816,0.2814,0,0.1457,0.1522,0.1558,0.1619,0.1686,0.1758,0.188,0.1939,0.2153,0.2338,0.2442,0.2518,0.2643,0.2717,0.2787,0.2811,0.2935,0.2902,0.2911,0.2807,0.274,0.2734,0.2733,0.2798,0.28,0.2802,0.2803,0,0.1385,0.1379,0.1437,0.1474,0.1548,0.158,0.1682,0.1778,0.1902,0.2199,0.2224,0.2426,0.2607,0.2626,0.2684,0.2697,0.265,0.2551,0.2577,0.2596,0.2456,0.2331,0.2268,0,0,0,0,0,0.1291,0.1256,0.1277,0.1306,0.1373,0.1431,0.1591,0.1701,0.1941,0.1951,0.2094,0.2195,0.2295,0.2403,0.2368,0.2565,0.2649,0.2511,0.2544,0.2708,0.2727,0.2582,0,0,0,0,0,0,0.1212,0.122,0.1218,0.1159,0.1154,0.1221,0.1326,0.1487,0.1531,0.1782,0.1855,0.204,0.2175,0.2282,0.2314,0.2347,0.2319,0.2648,0.2642,0.2697,0.2714,0.2729,0.2587,0,0,0,0,0]},{"header":{"parameterUnit":"m.s-1","parameterCategory":2,"la1":30.2991,"la2":30.254,"lo1":-89.0895,"lo2":-89.0444,"dy":0.0017,"dx":0.0017,"nx":28,"ny":28,"refTime":"2025-08-20T03:00:00:Z","depth":"4","parameterNumber":3,"parameterNumberName":"V-component_of_CURRENTS"},"data":[0,0,0,0,0,0,0,0,0,0,0,0,0,0,0,0,0,0,0,0,0,0,0,0,0,0,0,0,0,0,0,0,0,0,0,0,0,0,0,0,0,0,0,0,0,0,0,0,0,0,0,0,0,0,0,0,0,0,0.005,0.005,0,0.0011,0.001,0.001,-0.0018,-0.0018,-0.0018,-0.0019,-0.0093,-0.0095,-0.0096,0,0,0,0,0,0,0,0,0,0,0,0,0,0.006,0.006,0.005,0.005,0.0049,0.0011,0.001,0.001,-0.0018,-0.0018,-0.0018,-0.0019,-0.0092,-0.0094,-0.0097,0,0,0,0,0,0,0,0,0,0,0,0,0,0.0041,0.006,0.005,0.0031,0.0029,0.0011,0.001,0.0009,-0.0018,-0.0018,-0.0019,-0.0019,-0.0091,-0.0094,-0.0097,-0.0109,0,0,-0.0105,-0.0106,0,0,0,0,0,0,0,0,0.0042,0.0041,0.0034,0.0033,0.003,0.0002,-0.0013,-0.0032,-0.0018,-0.0001,-0.0019,-0.0019,-0.0064,-0.0069,-0.0076,-0.0113,-0.0116,-0.0105,-0.0107,-0.0108,-0.0109,0,0,0,0,0,0,0,0.0044,0.0042,0.0034,0.0034,0.0031,0.0011,0.0008,-0.0017,-0.0032,-0.0002,-0.0004,-0.0007,-0.0065,-0.0074,-0.0078,-0.0117,-0.0105,-0.0108,-0.011,-0.0111,-0.017,-0.017,0,0,0,0,0,0,0.0053,0.0044,0.0035,0.0032,0.0037,0.0011,0.0008,0.001,-0.0031,-0.0037,-0.0007,-0.0008,-0.0069,-0.0075,-0.0081,-0.0089,-0.0108,-0.0111,-0.0112,-0.017,-0.017,-0.017,0,0,0,0,0,0,0.0053,0.0053,0.0036,0.0037,0.0034,0.0012,0.0014,0.001,0.0002,-0.0034,-0.0041,-0.001,-0.0069,-0.0077,-0.01,-0.0093,-0.0112,-0.0115,-0.017,-0.017,-0.017,-0.0111,0,0,0,0,0,0,0.0054,0.0053,0.0056,0.0038,0.0034,0.0033,0.0014,0.0009,0.0001,-0.0001,-0.0039,-0.0046,-0.007,-0.0096,-0.0103,-0.0097,-0.0117,-0.017,-0.017,-0.017,-0.0113,-0.0109,-0.0105,0,0,0,0,0,0.0054,0.0066,0.0057,0.0056,0.004,0.0034,0.003,0.0012,0.0002,0.0004,-0.0024,-0.0044,-0.01,-0.0098,-0.0107,-0.0101,-0.017,-0.017,-0.017,-0.0115,-0.011,-0.0105,0,0,0,0,0,0,0.0072,0.0064,0.0053,0.0061,0.005,0.003,0.003,0.0016,-0.0004,-0.0007,-0.0044,-0.0053,-0.0072,-0.0096,-0.0092,-0.0118,-0.0138,-0.014,-0.0094,-0.0089,-0.0086,-0.0066,-0.0119,0,0,0,0,0,0.0078,0.0084,0.0069,0.0075,0.0072,0.005,0.0044,0.0034,0.0014,0.0006,-0.0021,-0.0051,-0.0078,-0.009,-0.0117,-0.013,-0.0163,-0.0133,-0.0129,-0.0125,-0.0116,-0.0158,-0.0157,-0.0169,-0.0169,-0.0169,0,0,0.0085,0.0082,0.0084,0.0079,0.0068,0.0076,0.0046,0.0045,0.005,0.0,-0.0004,-0.004,-0.008,-0.0094,-0.0104,-0.0112,-0.0141,-0.0125,-0.0121,-0.0114,-0.0158,-0.0157,-0.0156,-0.0169,-0.0169,-0.0169,0,0,0.011,0.0102,0.0117,0.0114,0.0106,0.0096,0.0098,0.008,0.007,0.0059,0.0023,-0.0005,-0.0042,-0.0067,-0.0086,-0.0078,-0.0122,-0.0089,-0.005,-0.0092,-0.0091,-0.0091,-0.0137,-0.0142,-0.0084,-0.0084,-0.0084,0,0.0118,0.0137,0.0119,0.0135,0.0141,0.0109,0.013,0.0115,0.0092,0.0086,0.0068,0.0008,-0.0027,-0.0049,-0.0046,-0.0068,-0.0102,-0.0062,-0.0086,-0.0086,-0.0087,-0.0135,-0.014,-0.0081,-0.0081,-0.0081,-0.0082,0,0.0155,0.017,0.0181,0.0193,0.0195,0.0207,0.0191,0.0185,0.0166,0.0149,0.0121,0.0068,0.0036,0.0016,-0.0012,-0.0033,-0.0059,-0.0078,-0.0094,-0.0082,-0.0134,-0.014,-0.0077,-0.0078,-0.0079,-0.0079,0,0,0.0175,0.0202,0.0206,0.0226,0.0229,0.0238,0.0245,0.0242,0.0248,0.0209,0.0205,0.0151,0.0117,0.0093,0.0047,0.001,-0.003,-0.0029,-0.0032,-0.0068,-0.0128,-0.0136,-0.0145,-0.0053,-0.0054,-0.0054,-0.0165,0,0.021,0.0258,0.0261,0.0306,0.0329,0.0313,0.0327,0.0318,0.0297,0.0283,0.0219,0.0197,0.0148,0.0131,0.0086,-0.0002,-0.0044,0.0001,-0.014,-0.0144,-0.0147,-0.0151,-0.0056,-0.017,-0.0172,-0.0173,-0.0174,0,0.0244,0.0275,0.0328,0.037,0.0379,0.04,0.0417,0.0426,0.0395,0.0376,0.0336,0.0282,0.022,0.0177,0.0041,0.0071,-0.0017,-0.0089,-0.0095,-0.0125,-0.0164,-0.0185,-0.0186,-0.0185,-0.0184,-0.0184,-0.0183,0,0.0269,0.0321,0.0369,0.0383,0.0421,0.0442,0.0461,0.0454,0.0477,0.0434,0.0435,0.0344,0.0303,0.0184,0.0036,0.0038,-0.0122,-0.0141,-0.0234,-0.0237,-0.0222,-0.0221,-0.0234,-0.0233,-0.0233,-0.0233,-0.0233,0,0.0302,0.034,0.0387,0.0413,0.0478,0.0486,0.0544,0.054,0.0549,0.058,0.049,0.0475,0.0304,0.0192,0.0053,-0.0112,-0.0113,-0.0227,-0.0263,-0.0197,-0.0192,-0.0228,-0.0226,-0.0237,-0.0236,-0.0235,-0.0235,0,0.0319,0.0347,0.0408,0.0465,0.0493,0.0537,0.0619,0.0659,0.0652,0.0684,0.0677,0.0572,0.042,0.0238,0.003,-0.0081,-0.0245,-0.0305,-0.0225,-0.0255,-0.0338,-0.0331,-0.0414,-0.0415,-0.0416,-0.0417,-0.0417,0,0.0332,0.0364,0.0451,0.0502,0.0534,0.061,0.0673,0.0706,0.0754,0.0743,0.0759,0.0626,0.0531,0.0238,0.0031,-0.0243,-0.028,-0.0367,-0.0346,-0.0328,-0.0355,-0.0347,-0.034,-0.0419,-0.0419,-0.042,-0.042,0,0.0358,0.0387,0.0443,0.0554,0.0632,0.0725,0.081,0.0854,0.089,0.088,0.0836,0.0677,0.0497,0.0252,0.0031,-0.0164,-0.031,-0.0378,-0.0377,-0.0358,-0.0336,-0.0359,-0.0351,-0.0423,-0.0423,-0.0422,-0.0422,0,0.0383,0.0427,0.0511,0.0609,0.0711,0.0813,0.0854,0.0913,0.0958,0.0942,0.0917,0.0717,0.0595,0.0291,0.0089,-0.0108,-0.0154,-0.0208,-0.0217,-0.0216,-0.0129,-0.007,-0.0103,0,0,0,0,0,0.0409,0.0471,0.0565,0.0679,0.078,0.0846,0.0942,0.0973,0.0999,0.0987,0.0962,0.0795,0.049,0.0347,0.0152,0.0056,-0.0201,-0.0181,-0.0269,-0.0442,-0.0438,-0.0371,0,0,0,0,0,0,0.043,0.0518,0.0572,0.0723,0.0808,0.0931,0.0994,0.1012,0.1007,0.099,0.0832,0.0747,0.0447,0.0606,0.0149,0.0085,0.0002,-0.0328,-0.0332,-0.0444,-0.044,-0.0437,-0.0367,0,0,0,0,0]}]]